Showing default

MOLA, 59289

Orbit data source: Space-Track

MOLA, 59289 is a payload satellite owned by USN PGS (US) in LEO that was launched on Thu, 21 Mar 2024 UTC via an ELECTRON launch vehicle from the Wallops Island (WLPIS). Payload-class satellites include a variety of spacecraft equipped with specific instruments for various scientific and technological missions. These include communications satellites like Starlink; space stations such as the ISS; scientific satellites like the Hubble; Earth observation satellites from companies like Planet Labs, Umbra, and HawkEye 360; GPS; miniature CubeSats for education and research; and military/defense satellites.

Loading next visibility...
Identifier
59289, 2024-053B
Orbit
LEO
Country
Flag of USUS
Related business
Manufacturer
USN PGS
Mission
Operational Defense Technology
Bus & Motor
CUBESAT 6U, Unknown motor
Mass
~10 kg wet, ~10 kg dry
Launch date (UTC)
2024-03-21 (2 years ago)
Launch vehicle
ELECTRON
Launch site
Wallops Island (WLPIS)
Object type
Payload
Rocket body
Debris
Shape & HBR
Box + 1 Pan, 0.2 m
Radar Cross Section
0.061 m², Medium (>0.1 m² and < 1m²)

Expand to show TLE details & history
Last TLE update: 2 days ago

TLE from 2 days ago
0 MOLA
1 59289U 24053B   26171.28939295  .00042665  00000-0  52776-3 0  9994
2 59289  49.9860 278.0932 0004258 316.2595  43.8037 15.59614282121981
Epoch: 2026-06-20T06:56Z
TLE epoch observation values (Epoch: 2026-06-20T06:56:43.550Z)
Latitude
-0.00005°
Longitude
-94.59445°
Altitude
387.255 km
Speed
7.68 km/s
True Right ascension
18h 32m 22s
True Declination
0° 00' 00"
Sunlit
Object was in full shadow at epoch
Visualization orbit readout
Latitude
Unknown
Longitude
Unknown
Altitude
Unknown
Speed
Unknown
Apparent Right ascension
Unknown
Apparent Declination
Unknown
Sunlit
N/A
Visualization observer readout
Local Sidereal Time
21:25:25
Azimuth
Unknown
Elevation
Unknown
Doppler factor
Unknown
Orbital elements
Apogee altitude
392.44 km
Perigee altitude
386.677 km
Semi-major axis
6,767.696 km
Eccentricity
0.00043
Inclination
49.986°
RAAN
278.0932°
Arg. of periapsis
316.2595°
True anomaly
43.83749°
Mean anomaly
43.8037°
Eccentric anomaly
43.82059°
Mean motion
3.89836 °/min
Orbital period
92.35 mins
BSTAR
0.00052776
Loading maneuver chart data...
Computing Atmospheric mass density...
Loading historical data...
Loading historical data...
Loading historical data...
Loading historical data...
Loading historical data...
Loading historical data...
Loading historical data...

Documentation

Showing up to 5 results
|